SCP
0 0 0 -0 -0 -0 -0 -0 0 0 0 0 0 0 0 0 0 0 0 0 0 0 0 0 -0 0 0 0 0 0 0 0 0 0 0 0 0 0 0 0 0 0 0
0 0 0 0 0 -0 0 -0 0 -0 -0 0 0 0 0 0 0 0 0 0 0 0 0 0 0 0 0 0 0 0 0 0 0 0 0 0 0 0 0 0 0 0 0
0 0 0 -0 -0 0 0 0 0 0 0 0 0 0 0 0 0 0 0 0 0 0 0 0 0 0 0 0 0 0 0 0 0 0 0 0 0 0 0 0 0 0 0
0 0 0 -0 -0 0 0 0 0 0 0 0 0 0 0 0 0 0 0 0 0 0 0 0 0 0 0 0 0 0 0 0 0 0 0 0 0 0 0 0 0 0 0
0 0 0 0 0 0 0 0 0 0 0 0 0 0 0 0 0 0 0 0 0 0 0 0 0 0 0 0 0 0 0 0 0 0 0 0 0 0 0 0 0 0 0
0 0 0 0 0 0 0 0 0 0 0 0 0 0 0 0 0 0 0 0 0 0 0 0 0 0 0 0 0 0 0 0 0 0 0 0 0 0 0 0 0 0 0
0 0 0 0 0 0 0 0 0 0 0 0 0 0 0 0 0 0 0 0 0 0 0 0 0 0 0 0 0 0 0 0 0 0 0 0 0 0 0 0 0 0 0
0 0 0 0 0 0 0 0 0 0 0 0 0 0 0 0 0 0 0 0 0 0 0 0 0 0 0 0 0 0 0 0 0 0 0 0 0 0 0 0 0 0 0
0 0 0 0 0 0 0 0 0 0 0 0 0 0 0 0 0 0 0 0 0 0 0 0 0 0 0 0 0 0 0 0 0 0 0 0 0 0 0 0 0 0 0
0 0 0 0 0 0 0 0 0 0 0 0 0 0 0 0 0 0 0 0 0 0 0 0 0 0 0 0 0 0 0 0 0 0 0 0 0 0 0 0 0 0 0
0 0 0 0 0 0 0 0 0 0 0 0 0 0 0 0 0 0 0 0 0 0 0 0 0 0 0 0 0 0 0 0 0 0 0 0 0 0 0 0 0 0 0
0 0 0 0 0 0 0 0 0 0 0 0 0 0 0 0 0 0 0 0 0 0 0 0 0 0 0 0 0 0 0 0 0 0 0 0 0 0 0 0 0 0 0
0 0 0 0 0 0 0 0 0 0 0 0 0 0 0 0 0 0 0 0 0 0 0 0 0 0 0 0 0 0 0 0 0 0 0 0 0 0 0 0 0 0 0
0 0 0 0 0 0 0 0 0 0 0 0 0 0 0 0 0 0 0 0 0 0 0 0 0 0 0 0 0 0 0 0 0 0 0 0 0 0 0 0 0 0 0
0 0 0 0 0 0 0 0 0 0 0 0 0 0 0 0 0 0 0 0 0 0 0 0 0 0 0 0 0 0 0 0 0 0 0 0 0 0 0 0 0 0 0
0 0 0 0 0 0 0 0 0 0 0 0 0 0 0 0 0 0 0 0 0 0 0 0 0 0 0 0 0 0 0 0 0 0 0 0 0 0 0 0 0 0 0
0 0 0 0 0 0 0 0 0 0 0 0 0 0 0 0 0 0 0 0 0 0 0 0 0 0 0 0 0 0 0 0 0 0 0 0 0 0 0 0 0 0 0
0 0 0 0 0 0 0 0 0 0 0 0 0 0 0 0 0 0 0 0 0 0 0 0 0 0 0 0 0 0 0 0 0 0 0 0 0 0 0 0 0 0 0
0 0 0 0 0 0 0 0 0 0 0 0 0 0 0 0 0 0 0 0 0 0 0 0 0 0 0 0 0 0 0 0 0 0 0 0 0 0 0 0 0 0 0
0 0 0 0 0 0 0 0 0 0 0 0 0 0 0 0 0 0 0 0 0 0 0 0 0 0 0 0 0 0 0 0 0 0 0 0 0 0 0 0 0 0 0
0 0 0 0 0 0 0 0 0 0 0 0 0 0 0 0 0 0 0 0 0 0 0 0 0 0 0 0 0 0 0 0 0 0 0 0 0 0 0 0 0 0 0
0 0 0 0 0 0 0 0 0 0 0 0 0 0 0 0 0 0 0 0 0 0 0 0 0 0 0 0 0 0 0 0 0 0 0 0 0 0 0 0 0 0 0
0 0 0 0 0 0 0 0 0 0 0 0 0 0 0 0 0 0 0 0 0 0 0 0 0 0 0 0 0 0 0 0 0 0 0 0 0 0 0 0 0 0 0
0 0 0 0 0 0 0 0 0 0 0 0 0 0 0 0 0 0 0 0 0 0 0 0 0 0 0 0 0 0 0 0 0 0 0 0 0 0 0 0 0 0 0
0 0 0 0 0 0 0 0 0 0 0 0 0 0 0 0 0 0 0 0 0 0 0 0 0 0 0 0 0 0 0 0 0 0 0 0 0 0 0 0 0 0 0
0 0 0 0 0 0 0 0 0 0 0 0 0 0 0 0 0 0 0 0 0 0 0 0 0 0 0 0 0 0 0 0 0 0 0 0 0 0 0 0 0 0 0
Wind_Speed_500mb
51 55 53 50 45 36 27 26 31 50 69 78 87 98 108 96 66 82 86 80 70 68 68 67 70 67 59 61 66 70 72 75 83 86 82 76 79 84 74 77 73 62 65
47 54 60 52 52 45 40 37 36 36 45 52 72 64 68 77 76 77 71 70 65 66 66 65 63 66 67 74 74 72 75 78 81 82 73 71 66 51 45 49 59 63 68
47 53 59 59 56 52 46 46 44 42 44 46 49 58 61 68 68 70 65 66 62 59 59 61 70 72 77 77 74 75 79 80 75 73 72 62 51 56 58 63 64 65 63
51 56 58 59 55 52 45 47 47 46 43 42 44 49 57 62 65 67 64 67 61 63 69 72 76 82 77 76 77 82 75 70 67 55 48 43 41 48 52 57 55 56 58
56 58 59 55 53 50 46 48 49 48 41 36 38 40 46 55 61 65 64 69 72 72 77 73 70 74 76 80 79 68 51 46 34 28 30 32 38 40 44 48 50 52 47
61 56 59 57 57 54 48 45 47 48 45 43 46 49 53 58 55 53 54 59 62 62 62 64 67 69 60 41 25 20 17 13 16 18 23 30 33 33 36 42 49 54 50
63 58 57 55 53 57 50 44 47 55 62 58 58 60 59 58 54 51 49 52 56 59 58 60 48 32 19 9 5 7 11 18 23 23 18 21 29 33 40 42 41 41 42
66 63 56 55 56 56 57 61 58 57 59 61 63 60 61 59 56 54 54 54 54 52 41 33 25 18 12 6 3 12 15 12 12 15 17 19 26 33 35 35 38 44 44
60 63 57 53 62 67 72 68 67 68 64 63 62 61 59 56 54 54 54 55 47 37 28 25 21 17 14 3 10 12 8 9 12 18 20 23 24 25 31 38 48 55 61
67 65 66 67 64 67 69 70 70 66 67 63 60 53 53 52 44 44 49 49 45 40 34 26 16 10 11 12 6 5 7 11 15 15 16 18 22 29 36 42 46 50 53
68 63 65 67 68 66 65 71 70 68 68 63 61 55 50 46 47 47 43 43 41 37 26 18 13 9 6 7 6 6 11 13 16 18 21 25 29 31 35 38 41 43 45
57 65 66 66 71 74 73 73 72 71 70 66 65 63 58 56 53 47 42 35 29 26 25 21 14 4 8 6 10 15 13 16 18 21 23 27 32 37 39 41 40 39 37
51 59 67 70 74 74 74 76 77 77 77 78 76 73 68 62 54 43 37 33 26 23 25 18 12 12 14 13 18 17 16 19 22 23 28 30 33 35 37 38 39 41 40
46 57 64 72 76 78 82 80 83 84 84 82 75 76 70 56 48 40 35 30 24 22 25 27 18 9 11 16 17 18 21 23 25 28 29 30 33 36 40 42 45 47 49
58 63 68 72 74 76 74 74 75 66 63 66 66 53 53 52 36 28 27 31 29 28 21 18 15 13 13 16 19 22 23 24 29 30 32 35 37 39 42 44 44 46 49
61 65 70 72 73 74 77 74 63 65 59 54 53 45 42 39 40 34 33 29 28 24 19 19 18 16 17 20 21 21 23 27 30 31 33 36 40 43 47 47 47 50 53
59 69 73 78 79 83 83 82 81 68 62 49 44 40 41 41 35 29 28 28 27 21 16 21 19 18 20 19 19 21 24 27 28 30 33 38 42 45 49 51 52 53 57
60 68 72 76 75 76 72 69 66 62 64 60 53 48 40 40 36 33 29 21 23 20 21 21 19 18 17 17 17 19 20 23 25 30 33 38 43 48 51 52 53 56 59
66 70 72 72 69 65 64 63 57 54 58 60 55 47 36 31 30 28 26 17 21 21 19 17 17 17 16 15 14 15 19 22 25 28 32 37 42 47 51 53 55 55 58
73 69 65 62 61 58 53 52 55 54 54 52 48 42 36 29 28 29 24 20 17 17 15 14 14 12 11 10 11 13 16 19 24 29 33 37 42 48 53 57 57 59 56
59 56 53 51 49 52 53 52 52 49 45 44 43 37 33 26 29 25 22 18 15 15 13 11 10 9 7 6 10 13 17 22 26 30 33 38 45 51 54 55 55 54 55
50 46 45 47 46 46 48 46 45 42 39 37 38 34 28 24 24 22 19 17 14 12 8 8 7 5 2 6 10 13 17 22 27 32 37 42 46 50 53 54 55 55 55
37 42 42 45 45 47 47 45 43 38 33 31 29 27 24 22 21 19 15 12 10 7 4 2 1 2 6 10 14 17 20 25 31 37 41 44 47 50 54 56 57 56 54
37 40 43 47 48 48 46 43 37 32 28 28 25 22 20 19 17 13 10 8 5 3 2 3 5 10 11 12 15 18 22 28 33 38 41 44 47 50 53 55 54 51 50
40 42 43 44 42 40 37 34 29 26 23 22 20 17 15 14 13 9 7 3 2 4 6 8 12 14 15 17 18 21 24 28 32 36 39 43 45 48 51 55 52 49 45
35 35 36 34 32 30 27 26 23 20 18 18 15 12 10 9 7 4 2 4 6 8 10 12 14 16 18 20 22 23 26 30 32 35 39 43 45 47 51 52 46 43 42
Wind_Direction_500mb
194 198 198 199 199 194 193 203 200 207 207 209 205 206 203 204 211 221 229 233 226 225 229 236 243 249 254 259 274 279 282 281 279 283 283 289 293 293 288 289 272 277 276
195 193 199 196 197 202 207 204 204 204 205 208 213 206 202 210 218 223 224 217 224 231 239 239 253 251 259 276 279 279 282 281 281 280 283 283 275 268 276 267 281 279 280
196 195 196 203 204 206 209 205 202 200 204 206 206 210 207 213 217 215 222 224 234 239 248 255 255 260 271 270 271 275 274 274 271 271 268 269 268 268 274 274 276 276 280
195 198 197 203 207 206 202 198 197 196 195 195 200 205 218 224 224 224 229 229 240 249 253 254 259 264 264 267 272 272 271 267 264 270 271 287 281 284 288 289 284 286 288
198 198 199 203 205 205 202 194 195 195 196 198 200 208 217 223 226 230 234 240 245 249 251 256 258 261 266 267 264 263 262 263 266 277 276 288 295 293 297 300 300 298 297
202 202 200 200 201 201 199 194 197 199 199 202 207 215 218 225 227 232 235 239 241 244 248 251 256 260 261 257 255 259 259 261 291 279 303 300 296 306 308 311 311 313 318
206 205 205 206 202 199 197 196 196 202 208 211 215 217 221 224 226 229 230 234 237 240 241 243 234 228 229 236 270 316 323 336 313 306 309 307 311 314 312 313 316 315 319
213 207 205 206 205 200 198 202 202 202 203 208 214 217 221 223 225 227 231 237 237 230 210 203 208 183 160 157 342 327 324 321 322 337 330 323 317 312 317 319 316 311 307
221 220 207 204 202 202 203 204 206 208 206 209 212 216 221 227 235 237 236 225 202 188 176 155 152 157 166 198 330 355 355 8 357 343 335 327 319 310 312 309 313 324 325
220 217 212 206 206 203 203 207 208 206 209 208 207 205 210 210 201 206 213 207 186 161 146 140 135 106 50 39 40 6 342 5 354 339 324 311 307 310 314 319 323 327 327
206 210 209 206 207 208 206 207 208 201 197 187 179 171 172 172 166 162 155 152 151 140 130 109 92 72 51 1 13 38 22 4 349 340 330 322 317 319 324 330 333 331 327
202 198 198 194 196 196 197 192 186 184 178 171 170 163 156 152 150 147 142 136 125 123 116 116 121 96 90 82 58 41 12 356 352 350 346 345 343 340 337 336 332 326 323
189 187 188 186 184 181 186 178 173 175 176 165 160 149 142 139 134 133 130 120 109 117 128 125 120 114 78 49 34 26 13 14 12 3 1 356 351 343 336 334 333 331 328
178 171 170 169 167 165 167 166 164 164 160 152 142 140 134 129 128 126 114 116 131 138 128 135 131 90 42 43 39 32 26 22 16 11 5 357 351 346 346 347 344 341 336
163 162 162 164 164 163 163 161 160 151 144 135 129 128 126 126 122 128 135 137 129 120 116 108 105 93 74 62 50 41 32 23 15 12 5 1 357 354 353 350 347 344 344
158 155 154 154 151 147 141 131 130 130 128 129 125 130 119 121 138 148 137 130 120 108 124 114 102 88 75 62 52 38 28 22 18 11 6 2 358 354 352 351 348 346 343
153 146 142 139 132 127 125 125 117 118 118 118 116 124 132 138 135 135 134 122 110 110 118 105 102 94 75 60 48 36 27 22 15 8 4 0 355 352 350 349 347 344 341
141 138 137 135 133 132 133 133 132 133 124 123 127 125 124 132 129 119 106 106 115 117 101 102 96 85 77 62 48 37 29 22 15 9 4 359 354 352 350 348 347 344 341
134 137 137 136 136 135 134 132 130 128 132 136 138 140 146 133 119 111 109 116 108 105 104 98 86 76 68 61 52 36 25 16 11 6 3 359 355 352 351 349 347 345 341
137 137 137 137 136 134 132 134 135 133 134 132 128 124 122 128 121 114 113 103 101 102 94 83 83 84 83 69 45 26 16 8 5 3 360 357 358 354 351 349 347 343 341
134 133 134 132 136 136 136 137 136 135 138 133 126 124 120 120 112 109 107 105 101 91 93 103 108 105 87 51 24 9 2 2 359 355 355 358 356 350 346 344 340 338 339
133 135 137 134 135 136 136 137 138 138 143 135 124 116 114 112 108 106 103 103 103 102 98 99 113 115 69 1 359 352 351 354 351 352 356 354 349 345 343 341 339 341 340
143 140 141 139 139 139 137 139 143 143 133 122 115 113 111 105 103 101 102 94 78 70 68 89 124 338 316 326 336 340 346 349 349 348 348 345 343 341 341 341 343 342 343
144 145 144 140 140 139 139 138 137 132 128 120 117 114 112 110 106 100 92 84 68 41 5 318 284 270 285 304 319 327 342 343 340 340 338 337 339 340 339 339 339 340 342
145 143 139 137 137 134 131 130 131 130 121 112 112 117 118 113 110 108 93 83 5 338 316 292 279 280 289 297 313 328 331 331 331 330 333 335 336 337 336 338 339 338 341
141 139 135 133 131 128 128 128 126 123 121 117 116 114 103 95 100 100 60 351 332 310 302 300 296 289 296 308 310 312 320 321 321 326 329 331 333 336 336 338 340 341 342
Wind_Speed_850mb
51 55 53 50 45 36 27 26 31 50 69 78 87 98 108 96 66 82 86 80 70 68 68 67 70 67 59 61 66 70 72 75 83 86 82 76 79 84 74 77 73 62 65
47 54 60 52 52 45 40 37 36 36 45 52 72 64 68 77 76 77 71 70 65 66 66 65 63 66 67 74 74 72 75 78 81 82 73 71 66 51 45 49 59 63 68
47 53 59 59 56 52 46 46 44 42 44 46 49 58 61 68 68 70 65 66 62 59 59 61 70 72 77 77 74 75 79 80 75 73 72 62 51 56 58 63 64 65 63
51 56 58 59 55 52 45 47 47 46 43 42 44 49 57 62 65 67 64 67 61 63 69 72 76 82 77 76 77 82 75 70 67 55 48 43 41 48 52 57 55 56 58
56 58 59 55 53 50 46 48 49 48 41 36 38 40 46 55 61 65 64 69 72 72 77 73 70 74 76 80 79 68 51 46 34 28 30 32 38 40 44 48 50 52 47
61 56 59 57 57 54 48 45 47 48 45 43 46 49 53 58 55 53 54 59 62 62 62 64 67 69 60 41 25 20 17 13 16 18 23 30 33 33 36 42 49 54 50
63 58 57 55 53 57 50 44 47 55 62 58 58 60 59 58 54 51 49 52 56 59 58 60 48 32 19 9 5 7 11 18 23 23 18 21 29 33 40 42 41 41 42
66 63 56 55 56 56 57 61 58 57 59 61 63 60 61 59 56 54 54 54 54 52 41 33 25 18 12 6 3 12 15 12 12 15 17 19 26 33 35 35 38 44 44
60 63 57 53 62 67 72 68 67 68 64 63 62 61 59 56 54 54 54 55 47 37 28 25 21 17 14 3 10 12 8 9 12 18 20 23 24 25 31 38 48 55 61
67 65 66 67 64 67 69 70 70 66 67 63 60 53 53 52 44 44 49 49 45 40 34 26 16 10 11 12 6 5 7 11 15 15 16 18 22 29 36 42 46 50 53
68 63 65 67 68 66 65 71 70 68 68 63 61 55 50 46 47 47 43 43 41 37 26 18 13 9 6 7 6 6 11 13 16 18 21 25 29 31 35 38 41 43 45
57 65 66 66 71 74 73 73 72 71 70 66 65 63 58 56 53 47 42 35 29 26 25 21 14 4 8 6 10 15 13 16 18 21 23 27 32 37 39 41 40 39 37
51 59 67 70 74 74 74 76 77 77 77 78 76 73 68 62 54 43 37 33 26 23 25 18 12 12 14 13 18 17 16 19 22 23 28 30 33 35 37 38 39 41 40
46 57 64 72 76 78 82 80 83 84 84 82 75 76 70 56 48 40 35 30 24 22 25 27 18 9 11 16 17 18 21 23 25 28 29 30 33 36 40 42 45 47 49
58 63 68 72 74 76 74 74 75 66 63 66 66 53 53 52 36 28 27 31 29 28 21 18 15 13 13 16 19 22 23 24 29 30 32 35 37 39 42 44 44 46 49
61 65 70 72 73 74 77 74 63 65 59 54 53 45 42 39 40 34 33 29 28 24 19 19 18 16 17 20 21 21 23 27 30 31 33 36 40 43 47 47 47 50 53
59 69 73 78 79 83 83 82 81 68 62 49 44 40 41 41 35 29 28 28 27 21 16 21 19 18 20 19 19 21 24 27 28 30 33 38 42 45 49 51 52 53 57
60 68 72 76 75 76 72 69 66 62 64 60 53 48 40 40 36 33 29 21 23 20 21 21 19 18 17 17 17 19 20 23 25 30 33 38 43 48 51 52 53 56 59
66 70 72 72 69 65 64 63 57 54 58 60 55 47 36 31 30 28 26 17 21 21 19 17 17 17 16 15 14 15 19 22 25 28 32 37 42 47 51 53 55 55 58
73 69 65 62 61 58 53 52 55 54 54 52 48 42 36 29 28 29 24 20 17 17 15 14 14 12 11 10 11 13 16 19 24 29 33 37 42 48 53 57 57 59 56
59 56 53 51 49 52 53 52 52 49 45 44 43 37 33 26 29 25 22 18 15 15 13 11 10 9 7 6 10 13 17 22 26 30 33 38 45 51 54 55 55 54 55
50 46 45 47 46 46 48 46 45 42 39 37 38 34 28 24 24 22 19 17 14 12 8 8 7 5 2 6 10 13 17 22 27 32 37 42 46 50 53 54 55 55 55
37 42 42 45 45 47 47 45 43 38 33 31 29 27 24 22 21 19 15 12 10 7 4 2 1 2 6 10 14 17 20 25 31 37 41 44 47 50 54 56 57 56 54
37 40 43 47 48 48 46 43 37 32 28 28 25 22 20 19 17 13 10 8 5 3 2 3 5 10 11 12 15 18 22 28 33 38 41 44 47 50 53 55 54 51 50
40 42 43 44 42 40 37 34 29 26 23 22 20 17 15 14 13 9 7 3 2 4 6 8 12 14 15 17 18 21 24 28 32 36 39 43 45 48 51 55 52 49 45
35 35 36 34 32 30 27 26 23 20 18 18 15 12 10 9 7 4 2 4 6 8 10 12 14 16 18 20 22 23 26 30 32 35 39 43 45 47 51 52 46 43 42
Wind_Direction_850mb
194 198 198 199 199 194 193 203 200 207 207 209 205 206 203 204 211 221 229 233 226 225 229 236 243 249 254 259 274 279 282 281 279 283 283 289 293 293 288 289 272 277 276
195 193 199 196 197 202 207 204 204 204 205 208 213 206 202 210 218 223 224 217 224 231 239 239 253 251 259 276 279 279 282 281 281 280 283 283 275 268 276 267 281 279 280
196 195 196 203 204 206 209 205 202 200 204 206 206 210 207 213 217 215 222 224 234 239 248 255 255 260 271 270 271 275 274 274 271 271 268 269 268 268 274 274 276 276 280
195 198 197 203 207 206 202 198 197 196 195 195 200 205 218 224 224 224 229 229 240 249 253 254 259 264 264 267 272 272 271 267 264 270 271 287 281 284 288 289 284 286 288
198 198 199 203 205 205 202 194 195 195 196 198 200 208 217 223 226 230 234 240 245 249 251 256 258 261 266 267 264 263 262 263 266 277 276 288 295 293 297 300 300 298 297
202 202 200 200 201 201 199 194 197 199 199 202 207 215 218 225 227 232 235 239 241 244 248 251 256 260 261 257 255 259 259 261 291 279 303 300 296 306 308 311 311 313 318
206 205 205 206 202 199 197 196 196 202 208 211 215 217 221 224 226 229 230 234 237 240 241 243 234 228 229 236 270 316 323 336 313 306 309 307 311 314 312 313 316 315 319
213 207 205 206 205 200 198 202 202 202 203 208 214 217 221 223 225 227 231 237 237 230 210 203 208 183 160 157 342 327 324 321 322 337 330 323 317 312 317 319 316 311 307
221 220 207 204 202 202 203 204 206 208 206 209 212 216 221 227 235 237 236 225 202 188 176 155 152 157 166 198 330 355 355 8 357 343 335 327 319 310 312 309 313 324 325
220 217 212 206 206 203 203 207 208 206 209 208 207 205 210 210 201 206 213 207 186 161 146 140 135 106 50 39 40 6 342 5 354 339 324 311 307 310 314 319 323 327 327
206 210 209 206 207 208 206 207 208 201 197 187 179 171 172 172 166 162 155 152 151 140 130 109 92 72 51 1 13 38 22 4 349 340 330 322 317 319 324 330 333 331 327
202 198 198 194 196 196 197 192 186 184 178 171 170 163 156 152 150 147 142 136 125 123 116 116 121 96 90 82 58 41 12 356 352 350 346 345 343 340 337 336 332 326 323
189 187 188 186 184 181 186 178 173 175 176 165 160 149 142 139 134 133 130 120 109 117 128 125 120 114 78 49 34 26 13 14 12 3 1 356 351 343 336 334 333 331 328
178 171 170 169 167 165 167 166 164 164 160 152 142 140 134 129 128 126 114 116 131 138 128 135 131 90 42 43 39 32 26 22 16 11 5 357 351 346 346 347 344 341 336
163 162 162 164 164 163 163 161 160 151 144 135 129 128 126 126 122 128 135 137 129 120 116 108 105 93 74 62 50 41 32 23 15 12 5 1 357 354 353 350 347 344 344
158 155 154 154 151 147 141 131 130 130 128 129 125 130 119 121 138 148 137 130 120 108 124 114 102 88 75 62 52 38 28 22 18 11 6 2 358 354 352 351 348 346 343
153 146 142 139 132 127 125 125 117 118 118 118 116 124 132 138 135 135 134 122 110 110 118 105 102 94 75 60 48 36 27 22 15 8 4 0 355 352 350 349 347 344 341
141 138 137 135 133 132 133 133 132 133 124 123 127 125 124 132 129 119 106 106 115 117 101 102 96 85 77 62 48 37 29 22 15 9 4 359 354 352 350 348 347 344 341
134 137 137 136 136 135 134 132 130 128 132 136 138 140 146 133 119 111 109 116 108 105 104 98 86 76 68 61 52 36 25 16 11 6 3 359 355 352 351 349 347 345 341
137 137 137 137 136 134 132 134 135 133 134 132 128 124 122 128 121 114 113 103 101 102 94 83 83 84 83 69 45 26 16 8 5 3 360 357 358 354 351 349 347 343 341
134 133 134 132 136 136 136 137 136 135 138 133 126 124 120 120 112 109 107 105 101 91 93 103 108 105 87 51 24 9 2 2 359 355 355 358 356 350 346 344 340 338 339
133 135 137 134 135 136 136 137 138 138 143 135 124 116 114 112 108 106 103 103 103 102 98 99 113 115 69 1 359 352 351 354 351 352 356 354 349 345 343 341 339 341 340
143 140 141 139 139 139 137 139 143 143 133 122 115 113 111 105 103 101 102 94 78 70 68 89 124 338 316 326 336 340 346 349 349 348 348 345 343 341 341 341 343 342 343
144 145 144 140 140 139 139 138 137 132 128 120 117 114 112 110 106 100 92 84 68 41 5 318 284 270 285 304 319 327 342 343 340 340 338 337 339 340 339 339 339 340 342
145 143 139 137 137 134 131 130 131 130 121 112 112 117 118 113 110 108 93 83 5 338 316 292 279 280 289 297 313 328 331 331 331 330 333 335 336 337 336 338 339 338 341
141 139 135 133 131 128 128 128 126 123 121 117 116 114 103 95 100 100 60 351 332 310 302 300 296 289 296 308 310 312 320 321 321 326 329 331 333 336 336 338 340 341 342